Location: Trebic
(49.2170°N, 15.8830°E)
Time: 04:15:49
(UTC+02:00)

Transit 2A Rocket - Pass Details

Date: 29 July 2019
Orbit: 590 x 913 km, 66.7° (Epoch: 24 August)

Event Time Altitude Azimuth Distance (km) Brightness Sun altitude
Rises 08:38:10 0° 325° (NW) 3,244 7.9 29.6°
Reaches altitude 10° 08:41:17 10° 341° (NNW) 2,249 7.3 30.1°
Maximum altitude 08:45:02 20° 29° (NNE) 1,588 7.1 30.7°
Drops below altitude 10° 08:48:33 10° 77° (ENE) 2,092 8.6 31.3°
Sets 08:51:19 0° 95° (E) 2,949 9.2 31.7°
